Simultaneous Nadir Overpasses (SNOs) Predictions

Prediction of SNOs between NOAA-20 and LANDSAT-9 Satellite Orbit:

Table of predicted SNOs for the next 14.0 days since TLE Epoch: 4/12/2025
Index Date (NOAA-20) Time (NOAA-20) Lat,Lon (NOAA-20) SZA (NOAA-20 ) Date (LANDSAT-9) Time (LANDSAT-9) Lat,Lon (LANDSAT-9) SZA (LANDSAT-9 ) Distance(km) Time Diff (sec)
1 04/13/2025 15:42:23 -70.27, 120.07 119.07 04/13/2025 15:43:35 -70.20, 120.56 119.17 20.39 72
2 04/13/2025 16:33:03 69.93, -72.11 60.56 04/13/2025 16:33:05 69.93, -72.17 60.56 2.59 2
3 04/13/2025 17:23:45 -69.85, 95.34 119.54 04/13/2025 17:22:34 -69.87, 95.38 119.51 3.24 71
4 04/16/2025 07:59:18 -70.05,-123.84 120.26 04/16/2025 08:00:06 -70.04,-123.79 120.29 2.55 48
5 04/16/2025 08:50:02 69.93, 43.66 59.60 04/16/2025 08:49:33 69.93, 43.71 59.60 1.96 29
6 04/16/2025 09:40:26 -68.88,-147.53 121.49 04/16/2025 09:39:19 -68.94,-149.98 121.37 97.96 67
7 04/18/2025 23:25:45 70.72,-176.47 59.52 04/18/2025 23:26:53 70.65,-174.65 59.39 67.54 68
8 04/19/2025 00:16:15 -70.00, -8.01 121.26 04/19/2025 00:16:33 -69.99, -7.96 121.27 1.76 18
9 04/19/2025 01:06:59 69.88, 159.48 58.61 04/19/2025 01:06:00 69.88, 159.52 58.62 1.65 59
10 04/21/2025 15:42:31 70.06, -59.66 57.90 04/21/2025 15:43:30 70.06, -59.62 57.90 1.45 59
11 04/21/2025 16:33:13 -69.96, 107.81 122.21 04/21/2025 16:33:00 -69.96, 107.87 122.22 2.25 13
12 04/21/2025 17:23:46 69.26, -83.86 57.06 04/21/2025 17:22:37 69.29, -85.39 57.12 60.30 69
13 04/24/2025 07:59:28 69.99, 56.22 56.93 04/24/2025 07:59:57 69.97, 56.15 56.92 2.98 29
14 04/24/2025 08:50:10 -69.88,-136.31 123.19 04/24/2025 08:49:27 -69.87,-136.36 123.20 2.41 43



Historial Predications of SNOs between NOAA-20 and LANDSAT-9
